Overview Statistics Trail Chart Weather Telemetry Raw packets
 

This is the latest recevied weather packets stored in our database for station/object K9COE-11. If no packets are shown the sender has not sent any weather packets the latest 10 day(s).

<< 164 165 166 167 168 169 170 >>
Time Temp. Humidity Pressure Rain* Wind** Luminosity Snow
1788027743 33.33° C 33% - 0 mm - - -
1788027334 33.33° C 34% - 0 mm - - -
1788027203 33.33° C 34% - 0 mm - - -
1788027063 33.33° C - - - - - -
1788026932 33.33° C 35% - 0 mm - - -
1788026793 32.78° C 35% - 0 mm - - -
1788026528 32.22° C 36% - 0 mm - - -
1788026252 32.22° C 36% - 0 mm - - -
1788025989 32.78° C 37% - 0 mm - - -
1788025850 31.67° C 36% - 0 mm - - -
1788025711 31.67° C - - - - - -
1788025585 31.67° C 37% - 0 mm - - -
1788025579 31.67° C 37% - 0 mm - - -
1788025447 31.67° C 38% - 0 mm - - -
1788025177 31.11° C 37% - 0 mm - - -
1788025044 31.11° C 37% - 0 mm - - -
1788025038 31.11° C 37% - 0 mm - - -
1788024962 22.78° C 57% - 0 mm - - -
1788024962 21.67° C 61% - 0 mm - - -
1788024962 21.67° C 60% - 0 mm - - -
1788024962 21.67° C 59% - 0 mm - - -
1788024962 22.78° C 60% - 0 mm - - -
1788024962 22.22° C 59% - 0 mm - - -
1788024906 31.11° C 37% - 0 mm - - -
1788024774 31.11° C 38% - 0 mm - - -

* Rain latest 24 hours (hover to see other rain measurements)
** Current wind speed in m/s (hover to see current wind gust speed)